This is the latest recevied weather packets stored in our database for station/object KA3BQE-13. If no packets are shown the sender has not sent any weather packets the latest 1 day(s).
| Time | Temp. | Humidity | Pressure | Rain* | Wind** | Luminosity | Snow |
|---|---|---|---|---|---|---|---|
| 1777989422 | 8.33° C | 83% | 1010.9 hPa | 0.51 mm | 0.89 m/s, 344° | 83 W/m² | - |
| 1777989119 | 8.33° C | 82% | 1010.8 hPa | 0 mm | 1.79 m/s, 347° | 66 W/m² | - |
| 1777988814 | 8.33° C | 82% | 1010.9 hPa | 0.51 mm | 0.89 m/s, 328° | 58 W/m² | - |
| 1777988512 | 8.33° C | 82% | 1011.1 hPa | 0.51 mm | 1.34 m/s, 353° | 58 W/m² | - |
| 1777988209 | 8.33° C | 79% | 1011.2 hPa | 0 mm | 1.79 m/s, 333° | 42 W/m² | - |
| 1777987905 | 8.89° C | 79% | 1011.4 hPa | 0 mm | 0.89 m/s, 1° | 34 W/m² | - |
| 1777987601 | 8.89° C | 78% | 1011.5 hPa | 0 mm | 0.45 m/s, 299° | 36 W/m² | - |
| 1777987299 | 8.89° C | 75% | 1011.3 hPa | 0 mm | 0.89 m/s, 299° | 36 W/m² | - |
| 1777986995 | 8.89° C | 74% | 1011.1 hPa | 0 mm | 0.89 m/s, 352° | 38 W/m² | - |
| 1777986693 | 8.89° C | 72% | 1011.1 hPa | 0 mm | 1.79 m/s, 339° | 40 W/m² | - |
| 1777986391 | 9.44° C | 74% | 1011.2 hPa | 0 mm | 0.89 m/s, 332° | 42 W/m² | - |
| 1777986089 | 9.44° C | 73% | 1010.9 hPa | 0 mm | 0.89 m/s, 279° | 50 W/m² | - |
| 1777985785 | 9.44° C | 72% | 1011.1 hPa | 0 mm | 3.13 m/s, 358° | 47 W/m² | - |
| 1777985482 | 9.44° C | 70% | 1011 hPa | 0 mm | 2.24 m/s, 346° | 35 W/m² | - |
| 1777985179 | 9.44° C | 71% | 1011 hPa | 0 mm | 0.89 m/s, 61° | 32 W/m² | - |
| 1777984875 | 10° C | 73% | 1011.1 hPa | 0 mm | 0.45 m/s, 320° | 28 W/m² | - |
| 1777984571 | 10° C | 72% | 1011.2 hPa | 0 mm | 0.89 m/s, 341° | 24 W/m² | - |
| 1777984268 | 10° C | 74% | 1011.2 hPa | 0 mm | 0.89 m/s, 354° | 20 W/m² | - |
| 1777983965 | 10° C | 73% | 1011.1 hPa | 0 mm | 0.89 m/s, 1° | 17 W/m² | - |
| 1777983662 | 10° C | 73% | 1010.9 hPa | 0 mm | 0.45 m/s, 174° | 17 W/m² | - |
| 1777983358 | 10° C | 73% | 1010.9 hPa | 0 mm | 0.45 m/s, 282° | 17 W/m² | - |
| 1777983055 | 10° C | 73% | 1010.7 hPa | 0 mm | 0.89 m/s, 297° | 14 W/m² | - |
| 1777982751 | 10° C | 77% | 1010.4 hPa | 0 mm | 1.34 m/s, 342° | 13 W/m² | - |
| 1777982447 | 10° C | 76% | 1010.2 hPa | 0 mm | 0.45 m/s, 323° | 10 W/m² | - |
| 1777982142 | 10° C | 74% | 1010.1 hPa | 0 mm | 0.89 m/s, 254° | 9 W/m² | - |
* Rain latest hour (hover to see other rain measurements)
** Current wind speed in m/s (hover to see current wind gust speed)